World > North America > United States > Ohio > Bidwell  

Bidwell, OH Hourly Weather Updates

Feedback E-mail the Weather

Quick Clicks

Bidwell, OH Weather Maps

°F °C°F °C
Bidwell Weather Map
UTC Time: 4/15/2024, 22:45
Your Time:

Bidwell, OH Regional Weather

Expires:202404152300;;804068
ASUS41 KCLE 152212
RWRCLE
OHIO REGIONAL WEATHER ROUNDUP
NATIONAL WEATHER SERVICE WILMINGTON, OH
600 PM EDT MON APR 15 2024

NOTE: "FAIR" INDICATES FEW OR NO CLOUDS BELOW 12,000 FEET WITH NO
SIGNIFICANT WEATHER AND/OR OBSTRUCTIONS TO VISIBILITY.


OHZ036-037-039>041-045>050-054>059-063>069-073>076-082>088-152300-
  CENTRAL AND SOUTHEAST OHIO
  
CITY           SKY/WX    TMP DP  RH WIND       PRES   REMARKS
COLUMBUS       FAIR      77  51  40 N10       29.94R                  
OSU AIRPORT    FAIR      77  48  35 N8        29.95R                  
BOLTON FIELD   SUNNY     75  52  43 NW10      29.96R                  
RICKENBACK AFB FAIR      77  53  42 NW9       29.94R                  
NEWARK         FAIR      77  51  40 NW6       29.94R                  
MARION         FAIR      73  42  32 N6        29.97S                  
LANCASTER      FAIR      78  53  41 W13       29.94R                  
ZANESVILLE     FAIR      77  53  43 NW10      29.94R                  
NEW PHILLY     FAIR      74  44  34 NW9       29.96R                  
$$
  

SKY/WX - Weather  TMP - Temperature  DP - Dew Point  RH - Humidity
WIND - Wind Direction/Speed PRES - Barometric Pressure VSB - Visibility
WCI - Wind Chill Index E13G22 Wind - East Wind 13 mph/Gusts of 22 mph

Trending Headlines

Trending Entertainment Headlines

Bidwell Radar Loop

Use the map search tool if you want to place a location marker on the radar map...

Bidwell Quick Facts

National Two Day Weather Forecast


E-mail the Bidwell Weather Forecast

Voice your opinion or tell us about page issues...